• en Suisse
  • Liste des pays
  • À 7 jours
  • Température de l'eau
  • Carte satellitaire
  • Carte météo
  • Widgets météo
  • user-avatar
    Se connecter

    Météo par heure à Dunedin

    Ce jour, 16 Juillet, Lundi

    Heure Température Précipitation Vent Pression Humidité
    00:00 +7°C° 0,1 mm 10 m/s 746 mmHg 91%
    01:00 +7°C° 0,1 mm 9 m/s 746 mmHg 91%
    02:00 +7°C° 0,1 mm 9 m/s 745 mmHg 91%
    03:00 +7°C° 0,1 mm 8 m/s 745 mmHg 92%
    04:00 +7°C° 0,1 mm 8 m/s 744 mmHg 92%
    05:00 +7°C° 0,1 mm 8 m/s 744 mmHg 93%
    06:00 +8°C° 0,2 mm 7 m/s 743 mmHg 94%
    07:00 +8°C° 0,2 mm 7 m/s 743 mmHg 95%
    08:00 +8°C° 0,2 mm 7 m/s 742 mmHg 95%
    09:00 +8°C° 0,1 mm 6 m/s 742 mmHg 92%
    10:00 +9°C° 0,1 mm 6 m/s 741 mmHg 88%
    11:00 +9°C° 0,1 mm 5 m/s 741 mmHg 85%
    12:00 +10°C° 0 mm 5 m/s 740 mmHg 83%
    13:00 +11°C° 0 mm 4 m/s 740 mmHg 81%
    14:00 +12°C° 0 mm 4 m/s 739 mmHg 79%
    15:00 +11°C° 0 mm 3 m/s 739 mmHg 82%
    16:00 +10°C° 0 mm 3 m/s 738 mmHg 85%
    17:00 +9°C° 0 mm 3 m/s 738 mmHg 88%
    18:00 +8°C° 0 mm 3 m/s 738 mmHg 87%
    19:00 +8°C° 0 mm 3 m/s 738 mmHg 86%
    20:00 +8°C° 0 mm 3 m/s 738 mmHg 85%
    21:00 +8°C° 0 mm 3 m/s 739 mmHg 86%
    22:00 +8°C° 0 mm 3 m/s 739 mmHg 87%
    23:00 +7°C° 0 mm 3 m/s 739 mmHg 88%

    Demain, 17 Juillet, Mardi

    Heure Température Précipitation Vent Pression Humidité
    00:00 +7°C° 0,1 mm 3 m/s 740 mmHg 88%
    01:00 +7°C° 0,1 mm 3 m/s 740 mmHg 88%
    02:00 +7°C° 0,1 mm 3 m/s 741 mmHg 88%
    03:00 +7°C° 0 mm 3 m/s 741 mmHg 88%
    04:00 +6°C° 0 mm 2 m/s 741 mmHg 88%
    05:00 +6°C° 0 mm 2 m/s 742 mmHg 88%
    06:00 +5°C° 0 mm 3 m/s 742 mmHg 87%
    07:00 +5°C° 0 mm 3 m/s 743 mmHg 86%
    08:00 +5°C° 0 mm 3 m/s 744 mmHg 84%
    09:00 +8°C° 0 mm 3 m/s 744 mmHg 77%
    10:00 +9°C° 0 mm 3 m/s 744 mmHg 70%
    11:00 +11°C° 0 mm 3 m/s 745 mmHg 62%
    12:00 +11°C° 0 mm 3 m/s 744 mmHg 61%
    13:00 +12°C° 0 mm 3 m/s 744 mmHg 59%
    14:00 +13°C° 0 mm 2 m/s 744 mmHg 58%
    15:00 +10°C° 0 mm 2 m/s 745 mmHg 65%
    16:00 +9°C° 0 mm 3 m/s 745 mmHg 71%
    17:00 +7°C° 0 mm 3 m/s 745 mmHg 78%
    18:00 +7°C° 0 mm 3 m/s 746 mmHg 78%
    19:00 +5°C° 0 mm 3 m/s 746 mmHg 79%
    20:00 +5°C° 0 mm 3 m/s 746 mmHg 79%
    21:00 +5°C° 0 mm 3 m/s 746 mmHg 79%
    22:00 +4°C° 0 mm 3 m/s 747 mmHg 79%
    23:00 +4°C° 0 mm 3 m/s 747 mmHg 79%

    Après-demain, 18 Juillet, Mercredi

    Heure Température Précipitation Vent Pression Humidité
    00:00 +4°C° 0 mm 3 m/s 747 mmHg 80%
    01:00 +4°C° 0 mm 3 m/s 747 mmHg 80%
    02:00 +5°C° 0 mm 2 m/s 747 mmHg 81%
    03:00 +5°C° 0 mm 2 m/s 747 mmHg 80%
    04:00 +5°C° 0 mm 2 m/s 747 mmHg 79%
    05:00 +5°C° 0 mm 2 m/s 747 mmHg 78%
    06:00 +5°C° 0 mm 2 m/s 747 mmHg 79%
    07:00 +5°C° 0 mm 2 m/s 747 mmHg 79%
    08:00 +5°C° 0 mm 2 m/s 747 mmHg 79%
    09:00 +7°C° 0 mm 2 m/s 747 mmHg 74%
    10:00 +9°C° 0 mm 2 m/s 747 mmHg 68%
    11:00 +12°C° 0 mm 2 m/s 747 mmHg 63%
    12:00 +12°C° 0 mm 2 m/s 746 mmHg 62%
    13:00 +13°C° 0 mm 2 m/s 746 mmHg 61%
    14:00 +13°C° 0 mm 2 m/s 745 mmHg 60%
    15:00 +11°C° 0 mm 3 m/s 745 mmHg 66%
    16:00 +9°C° 0 mm 3 m/s 745 mmHg 72%
    17:00 +7°C° 0 mm 3 m/s 745 mmHg 78%
    18:00 +7°C° 0 mm 3 m/s 745 mmHg 79%
    19:00 +7°C° 0 mm 3 m/s 745 mmHg 80%
    20:00 +5°C° 0 mm 3 m/s 745 mmHg 80%
    21:00 +5°C° 0 mm 3 m/s 745 mmHg 81%
    22:00 +5°C° 0 mm 3 m/s 745 mmHg 81%
    23:00 +5°C° 0 mm 3 m/s 745 mmHg 81%

    19 Juillet, Jeudi

    Heure Température Précipitation Vent Pression Humidité
    00:00 +4°C° 0 mm 3 m/s 745 mmHg 81%
    01:00 +4°C° 0 mm 3 m/s 745 mmHg 82%
    02:00 +4°C° 0 mm 3 m/s 744 mmHg 83%
    03:00 +5°C° 0 mm 2 m/s 744 mmHg 82%
    04:00 +5°C° 0 mm 2 m/s 744 mmHg 82%
    05:00 +5°C° 0 mm 2 m/s 744 mmHg 81%
    06:00 +5°C° 0 mm 2 m/s 744 mmHg 80%
    07:00 +6°C° 0 mm 2 m/s 745 mmHg 78%
    08:00 +6°C° 0 mm 2 m/s 745 mmHg 77%
    09:00 +7°C° 0 mm 2 m/s 745 mmHg 76%
    10:00 +9°C° 0 mm 1 m/s 745 mmHg 74%
    11:00 +10°C° 0 mm 1 m/s 745 mmHg 73%
    12:00 +11°C° 0 mm 1 m/s 745 mmHg 73%
    13:00 +10°C° 0 mm 2 m/s 745 mmHg 73%
    14:00 +12°C° 0 mm 2 m/s 745 mmHg 73%
    15:00 +10°C° 0 mm 2 m/s 746 mmHg 77%
    16:00 +9°C° 0 mm 2 m/s 746 mmHg 80%
    17:00 +8°C° 0 mm 2 m/s 747 mmHg 84%
    18:00 +7°C° 0 mm 2 m/s 747 mmHg 85%
    19:00 +7°C° 0 mm 2 m/s 747 mmHg 86%
    20:00 +6°C° 0 mm 2 m/s 748 mmHg 86%
    21:00 +6°C° 0 mm 2 m/s 748 mmHg 86%
    22:00 +6°C° 0 mm 2 m/s 748 mmHg 86%
    23:00 +5°C° 0 mm 2 m/s 749 mmHg 86%

    20 Juillet, Vendredi

    Heure Température Précipitation Vent Pression Humidité
    00:00 +5°C° 0 mm 2 m/s 749 mmHg 86%
    01:00 +5°C° 0 mm 2 m/s 749 mmHg 86%
    02:00 +5°C° 0 mm 2 m/s 749 mmHg 85%
    03:00 +5°C° 0 mm 2 m/s 749 mmHg 86%
    04:00 +5°C° 0 mm 2 m/s 749 mmHg 86%
    05:00 +4°C° 0 mm 2 m/s 749 mmHg 86%
    06:00 +4°C° 0 mm 2 m/s 749 mmHg 86%
    07:00 +5°C° 0 mm 2 m/s 749 mmHg 85%
    08:00 +4°C° 0 mm 3 m/s 749 mmHg 84%
    09:00 +7°C° 0 mm 3 m/s 749 mmHg 78%
    10:00 +9°C° 0 mm 3 m/s 749 mmHg 71%
    11:00 +11°C° 0 mm 3 m/s 749 mmHg 65%
    12:00 +11°C° 0 mm 3 m/s 748 mmHg 63%
    13:00 +12°C° 0 mm 4 m/s 748 mmHg 61%
    14:00 +13°C° 0 mm 4 m/s 747 mmHg 59%
    15:00 +11°C° 0 mm 4 m/s 747 mmHg 66%
    16:00 +8°C° 0 mm 4 m/s 747 mmHg 73%
    17:00 +7°C° 0 mm 4 m/s 747 mmHg 79%
    18:00 +6°C° 0 mm 4 m/s 747 mmHg 79%
    19:00 +6°C° 0 mm 5 m/s 747 mmHg 78%
    20:00 +6°C° 0 mm 5 m/s 747 mmHg 78%
    21:00 +6°C° 0 mm 5 m/s 746 mmHg 78%
    22:00 +6°C° 0 mm 5 m/s 746 mmHg 77%
    23:00 +7°C° 0 mm 5 m/s 746 mmHg 77%

    21 Juillet, Samedi

    Heure Température Précipitation Vent Pression Humidité
    00:00 +7°C° 0 mm 5 m/s 745 mmHg 77%
    01:00 +7°C° 0 mm 5 m/s 745 mmHg 77%
    02:00 +7°C° 0 mm 5 m/s 744 mmHg 78%
    03:00 +6°C° 0 mm 4 m/s 744 mmHg 79%
    04:00 +6°C° 0 mm 4 m/s 743 mmHg 80%
    05:00 +6°C° 0 mm 4 m/s 743 mmHg 81%
    06:00 +6°C° 0 mm 4 m/s 743 mmHg 79%
    07:00 +6°C° 0 mm 4 m/s 743 mmHg 78%
    08:00 +7°C° 0 mm 4 m/s 743 mmHg 76%
    09:00 +8°C° 0 mm 4 m/s 742 mmHg 72%
    10:00 +10°C° 0 mm 5 m/s 741 mmHg 69%
    11:00 +12°C° 0 mm 5 m/s 741 mmHg 65%
    12:00 +12°C° 0 mm 5 m/s 740 mmHg 67%
    13:00 +12°C° 0 mm 5 m/s 739 mmHg 69%
    14:00 +12°C° 0 mm 5 m/s 738 mmHg 71%
    15:00 +10°C° 1,1 mm 6 m/s 738 mmHg 78%
    16:00 +8°C° 1,1 mm 7 m/s 738 mmHg 86%
    17:00 +5°C° 1,1 mm 8 m/s 738 mmHg 93%
    18:00 +5°C° 0,2 mm 8 m/s 739 mmHg 92%
    19:00 +4°C° 0,2 mm 7 m/s 740 mmHg 92%
    20:00 +4°C° 0,2 mm 7 m/s 741 mmHg 91%
    21:00 +4°C° 0 mm 8 m/s 742 mmHg 90%
    22:00 +2°C° 0 mm 8 m/s 743 mmHg 90%
    23:00 +2°C° 0 mm 8 m/s 743 mmHg 89%
    Voir plus